sat.trackr.live / text

‹ back to catalog

USA 99 (MILSTAR-1 1)

NORAD 22988 · 1994-009A

PAYLOAD ACTIVE UNKNOWN

§ Identity

Operator
Country
US
Launch date
1994-02-07
Launch site
AFETR
Launch vehicle
Mass (kg)
RCS (m²)

Purposes: comms

External: N2YO · Heavens-Above · Gunter

§ Orbital elements

Epoch: 2026-05-24T14:20:56.076864Z

Period
1,458.61 min
Inclination
17.5936°
Eccentricity
0.0000954
Mean motion
0.98723893 rev/d
Perigee alt
36,222.1 km
Apogee alt
36,230.2 km
Semi-major
42,604.3 km
B*
0.0000e+0
RAAN
27.9526°
Arg perigee
267.9667°
Mean anomaly
298.2395°
Rev number
3,271

§ Raw data

USA 99 (MILSTAR-1 1)1 22988U 94009A   26144.59787126 -.00000254  00000+0  00000+0 0  99932 22988  17.5936  27.9526 0000954 267.9667 298.2395  0.98723893 32714

JSON: /api/v1/satellites/22988 · /tle

For live sub-satellite position, see the globe view (requires WebGL).

§ Visibility from observer

Set your observer location to see the next 7 days of passes ≥ 10°. The values pass through the URL so the page stays shareable.

No JS? Fill the form by hand. The geolocation button needs JavaScript.